Woodward, OK

4:57 AM CDT on June 24, 2017 (GMT -0500)
West Woodward

Weather History for KWWR - February, 2014

Change the Weather History Date:

Saturday, February 8, 2014

  Actual Average (KGAG) Record (KGAG)
Temperature  
Mean Temperature 29 °F -  
Max Temperature 35 °F 50 °F 78 °F (1957)
Min Temperature 23 °F 21 °F 1 °F (2011)
Degree Days  
Heating Degree Days 36    
Moisture  
Dew Point 24 °F    
Average Humidity 90    
Maximum Humidity 100    
Minimum Humidity 75    
Precipitation  
Precipitation 0.00 in - - ()
Sea Level Pressure  
Sea Level Pressure 30.02 in    
Wind  
Wind Speed 7 mph (SSE)    
Max Wind Speed 10 mph    
Max Gust Speed -    
Visibility 5 miles    
Events Fog , Snow    
Averages and records for this station are not official NWS values.
T = Trace of Precipitation, MM = Missing Value Source: NWS Daily Summary

Daily Weather History Graph

Daily Weather History Graph

Search for Another Location

Airport or City:

Trip Planner

Search our weather history database for the weather conditions in past years. The results will help you decide how hot, cold, wet, or windy it might be!

Date:

Astronomy

Feb. 08, 2014 Rise Set
Actual Time 7:33 AM CST 6:11 PM CST
Civil Twilight 7:06 AM CST 6:38 PM CST
Nautical Twilight 6:36 AM CST 7:09 PM CST
Astronomical Twilight 6:05 AM CST 7:39 PM CST
Moon 1:09 PM CST (2/8) 2:44 AM CST (2/8)
Length of Visible Light 11h 31m
Length of Day
10h 38m
Waxing Gibbous, 69% of the Moon is Illuminated
Feb 8
Waxing Gibbous
Feb 14
Full
Feb 22
Last Quarter
Mar 1
New
Mar 8
First Quarter

Hourly Weather History & Observations

Time (CST) Temp. Windchill Dew Point Humidity Pressure Visibility Wind Dir Wind Speed Gust Speed Precip Events Conditions
12:15 AM 24.8 °F 16.1 °F 21.2 °F 86% 30.05 in 10.0 mi SSE 8.1 mph - N/A   Overcast
12:35 AM 24.8 °F 16.1 °F 21.2 °F 86% 30.05 in 10.0 mi SSE 8.1 mph - N/A   Overcast
12:55 AM 24.8 °F 14.6 °F 21.2 °F 86% 30.06 in 10.0 mi South 10.4 mph - N/A   Overcast
1:15 AM 24.8 °F 15.3 °F 21.2 °F 86% 30.05 in 10.0 mi South 9.2 mph - N/A   Overcast
1:35 AM 24.8 °F 15.3 °F 21.2 °F 86% 30.05 in 7.0 mi South 9.2 mph - N/A   Overcast
1:55 AM 24.8 °F 14.6 °F 21.2 °F 86% 30.04 in 5.0 mi South 10.4 mph - N/A   Overcast
2:15 AM 23.0 °F 13.1 °F 21.2 °F 93% 30.03 in 5.0 mi South 9.2 mph - N/A   Overcast
2:35 AM 24.8 °F 15.3 °F 23.0 °F 93% 30.03 in 3.0 mi South 9.2 mph - N/A   Overcast
2:55 AM 24.8 °F 15.3 °F 23.0 °F 93% 30.02 in 2.5 mi South 9.2 mph - N/A   Overcast
3:15 AM 24.8 °F 15.3 °F 23.0 °F 93% 30.03 in 2.5 mi South 9.2 mph - N/A   Overcast
3:35 AM 24.8 °F 14.6 °F 23.0 °F 93% 30.03 in 2.5 mi South 10.4 mph - N/A   Overcast
3:55 AM 24.8 °F 16.1 °F 23.0 °F 93% 30.03 in 2.0 mi South 8.1 mph - N/A   Overcast
4:15 AM 24.8 °F 16.1 °F 23.0 °F 93% 30.03 in 2.5 mi South 8.1 mph - N/A   Overcast
4:35 AM 24.8 °F 16.9 °F 23.0 °F 93% 30.02 in 1.8 mi South 6.9 mph - N/A   Overcast
4:55 AM 24.8 °F 16.9 °F 23.0 °F 93% 30.02 in 1.5 mi South 6.9 mph - N/A   Overcast
5:15 AM 24.8 °F 16.9 °F 23.0 °F 93% 30.02 in 1.5 mi South 6.9 mph - N/A   Overcast
5:35 AM 24.8 °F 16.9 °F 23.0 °F 93% 30.02 in 1.5 mi South 6.9 mph - N/A Snow Light Snow
5:55 AM 24.8 °F 16.9 °F 23.0 °F 93% 30.02 in 3.0 mi South 6.9 mph - N/A   Overcast
6:15 AM 24.8 °F 16.9 °F 23.0 °F 93% 30.02 in 1.2 mi SSW 6.9 mph - N/A Snow Light Snow
6:35 AM 24.8 °F 17.9 °F 23.0 °F 93% 30.02 in 2.0 mi SSW 5.8 mph - N/A   Overcast
6:55 AM 24.8 °F 16.9 °F 23.0 °F 93% 30.01 in 2.0 mi South 6.9 mph - N/A   Overcast
7:15 AM 24.8 °F 17.9 °F 23.0 °F 93% 30.01 in 1.8 mi SSW 5.8 mph - N/A Snow Light Snow
7:35 AM 24.8 °F 17.9 °F 23.0 °F 93% 30.02 in 1.5 mi SW 5.8 mph - N/A   Overcast
7:55 AM 24.8 °F 16.9 °F 23.0 °F 93% 30.02 in 2.0 mi SSW 6.9 mph - N/A   Overcast
8:15 AM 24.8 °F 17.9 °F 23.0 °F 93% 30.02 in 1.2 mi SSW 5.8 mph - N/A Snow Light Snow
8:35 AM 24.8 °F 16.1 °F 23.0 °F 93% 30.02 in 1.8 mi South 8.1 mph - N/A   Overcast
8:55 AM 24.8 °F 19.1 °F 23.0 °F 93% 30.04 in 1.2 mi SSW 4.6 mph - N/A Snow Light Snow
9:15 AM 24.8 °F 16.9 °F 23.0 °F 93% 30.04 in 2.0 mi South 6.9 mph - N/A Snow Light Snow
9:35 AM 24.8 °F 16.9 °F 23.0 °F 93% 30.05 in 1.2 mi SSW 6.9 mph - N/A   Overcast
9:55 AM 26.6 °F 21.2 °F 23.0 °F 86% 30.05 in 3.0 mi SW 4.6 mph - N/A   Overcast
10:15 AM 26.6 °F 21.2 °F 23.0 °F 86% 30.05 in 4.0 mi WSW 4.6 mph - N/A   Overcast
10:35 AM 26.6 °F 21.2 °F 23.0 °F 86% 30.05 in 4.0 mi SSW 4.6 mph - N/A   Overcast
10:55 AM 26.6 °F 22.6 °F 23.0 °F 86% 30.06 in 4.0 mi SW 3.5 mph - N/A   Overcast
11:15 AM 26.6 °F - 23.0 °F 86% 30.06 in 5.0 mi Calm Calm - N/A   Overcast
11:35 AM 26.6 °F - 23.0 °F 86% 30.05 in 5.0 mi Calm Calm - N/A   Overcast
11:55 AM 26.6 °F 21.2 °F 24.8 °F 93% 30.04 in 5.0 mi NW 4.6 mph - N/A   Overcast
12:15 PM 26.6 °F - 26.6 °F 100% 30.03 in 7.0 mi Calm Calm - N/A   Overcast
12:35 PM 28.4 °F - 26.6 °F 93% 30.02 in 7.0 mi Calm Calm - N/A   Overcast
12:55 PM 28.4 °F - 26.6 °F 93% 30.01 in 7.0 mi Calm Calm - N/A   Overcast
1:15 PM 28.4 °F 22.2 °F 26.6 °F 93% 30.01 in 7.0 mi SSW 5.8 mph - N/A   Overcast
1:35 PM 30.2 °F 22.6 °F 26.6 °F 86% 30.00 in 7.0 mi SSE 8.1 mph - N/A   Overcast
1:55 PM 30.2 °F 24.3 °F 26.6 °F 86% 29.98 in 7.0 mi SSE 5.8 mph - N/A   Overcast
2:15 PM 32.0 °F 27.5 °F 26.6 °F 80% 29.97 in 7.0 mi SSE 4.6 mph - N/A   Overcast
2:35 PM 32.0 °F 25.6 °F 26.6 °F 80% 29.96 in 10.0 mi SSE 6.9 mph - N/A   Scattered Clouds
2:55 PM 32.0 °F 25.6 °F 28.4 °F 87% 29.95 in 10.0 mi SE 6.9 mph - N/A   Scattered Clouds
3:15 PM 33.8 °F 28.6 °F 28.4 °F 81% 29.95 in 10.0 mi SSE 5.8 mph - N/A   Clear
3:35 PM 33.8 °F 29.6 °F 28.4 °F 81% 29.95 in 10.0 mi SE 4.6 mph - N/A   Clear
3:55 PM 33.8 °F 30.8 °F 28.4 °F 81% 29.95 in 10.0 mi SE 3.5 mph - N/A   Clear
4:15 PM 35.6 °F 30.7 °F 28.4 °F 75% 29.95 in 10.0 mi SE 5.8 mph - N/A   Clear
4:35 PM 33.8 °F 29.6 °F 28.4 °F 81% 29.95 in 10.0 mi SE 4.6 mph - N/A   Clear
4:55 PM 33.8 °F 28.6 °F 28.4 °F 81% 29.96 in 10.0 mi ESE 5.8 mph - N/A   Clear
5:15 PM 33.8 °F 29.6 °F 28.4 °F 81% 29.96 in 10.0 mi East 4.6 mph - N/A   Clear
5:35 PM 33.8 °F 28.6 °F 28.4 °F 81% 29.97 in 10.0 mi East 5.8 mph - N/A   Clear
5:55 PM 32.0 °F 27.5 °F 28.4 °F 87% 29.98 in 10.0 mi East 4.6 mph - N/A   Clear
6:15 PM 32.0 °F 27.5 °F 28.4 °F 87% 29.98 in 10.0 mi ESE 4.6 mph - N/A   Clear
6:35 PM 30.2 °F 24.3 °F 26.6 °F 86% 29.98 in 7.0 mi ESE 5.8 mph - N/A   Clear
6:55 PM 30.2 °F 25.4 °F 26.6 °F 86% 29.99 in 7.0 mi East 4.6 mph - N/A   Clear
7:15 PM 28.4 °F 23.3 °F 26.6 °F 93% 30.01 in 7.0 mi East 4.6 mph - N/A   Clear
7:35 PM 28.4 °F 23.3 °F 24.8 °F 86% 30.00 in 5.0 mi East 4.6 mph - N/A   Clear
7:55 PM 26.6 °F 21.2 °F 24.8 °F 93% 30.01 in 5.0 mi East 4.6 mph - N/A   Clear
8:15 PM 26.6 °F 21.2 °F 23.0 °F 86% 30.02 in 5.0 mi East 4.6 mph - N/A   Clear
8:35 PM 24.8 °F 17.9 °F 23.0 °F 93% 30.02 in 5.0 mi East 5.8 mph - N/A   Clear
8:55 PM 24.8 °F 19.1 °F 23.0 °F 93% 30.02 in 4.0 mi ESE 4.6 mph - N/A   Clear
9:15 PM 23.0 °F 14.7 °F 21.2 °F 93% 30.02 in 4.0 mi SSE 6.9 mph - N/A   Clear
9:35 PM 23.0 °F 17.0 °F 21.2 °F 93% 30.04 in 1.0 mi ENE 4.6 mph - N/A   Overcast
9:55 PM 24.8 °F 17.9 °F 23.0 °F 93% 30.04 in 0.2 mi East 5.8 mph - N/A Fog Light Freezing Fog
10:15 PM 26.6 °F 19.1 °F 23.0 °F 86% 30.04 in 0.2 mi East 6.9 mph - N/A Snow Light Snow
10:35 PM 26.6 °F 19.1 °F 24.8 °F 93% 30.05 in 0.2 mi East 6.9 mph - N/A Snow Light Snow
10:55 PM 26.6 °F 18.2 °F 24.8 °F 93% 30.04 in 0.2 mi East 8.1 mph - N/A Snow Snow
11:15 PM 26.6 °F 17.5 °F 26.6 °F 100% 30.04 in 0.2 mi East 9.2 mph - N/A Snow Light Snow
11:35 PM 26.6 °F 19.1 °F 26.6 °F 100% 30.05 in 0.2 mi East 6.9 mph - N/A Snow Snow
11:55 PM 26.6 °F 19.1 °F 26.6 °F 100% 30.05 in 0.2 mi East 6.9 mph - N/A Snow Snow